Hourly Weather Agios Andreas

Today, 17 May, Monday

Time Temperature Precipitation Wind Pressure Humidity
00:00 +15°C° 0 mm 5 mps 757 mmHg 77%
01:00 +15°C° 0 mm 5 mps 756 mmHg 76%
02:00 +16°C° 0 mm 5 mps 756 mmHg 73%
03:00 +16°C° 0 mm 5 mps 756 mmHg 71%
04:00 +17°C° 0 mm 4 mps 756 mmHg 69%
05:00 +19°C° 0 mm 4 mps 756 mmHg 61%
06:00 +21°C° 0 mm 4 mps 757 mmHg 54%
07:00 +22°C° 0 mm 3 mps 757 mmHg 47%
08:00 +25°C° 0 mm 4 mps 757 mmHg 44%
09:00 +26°C° 0 mm 4 mps 757 mmHg 41%
10:00 +27°C° 0 mm 4 mps 757 mmHg 38%
11:00 +27°C° 0 mm 4 mps 757 mmHg 38%
12:00 +28°C° 0 mm 4 mps 757 mmHg 37%
13:00 +28°C° 0 mm 5 mps 757 mmHg 37%
14:00 +28°C° 0 mm 4 mps 757 mmHg 38%
15:00 +27°C° 0 mm 4 mps 757 mmHg 39%
16:00 +27°C° 0 mm 4 mps 757 mmHg 40%
17:00 +25°C° 0 mm 4 mps 757 mmHg 47%
18:00 +22°C° 0 mm 4 mps 757 mmHg 55%
19:00 +20°C° 0 mm 4 mps 757 mmHg 62%
20:00 +20°C° 0 mm 4 mps 757 mmHg 59%
21:00 +20°C° 0 mm 3 mps 757 mmHg 57%
22:00 +20°C° 0 mm 3 mps 757 mmHg 54%
23:00 +20°C° 0 mm 3 mps 757 mmHg 56%

Tomorrow, 18 May, Tuesday

Time Temperature Precipitation Wind Pressure Humidity
00:00 +19°C° 0 mm 3 mps 757 mmHg 59%
01:00 +19°C° 0 mm 3 mps 757 mmHg 61%
02:00 +19°C° 0 mm 3 mps 757 mmHg 62%
03:00 +19°C° 0 mm 2 mps 756 mmHg 63%
04:00 +19°C° 0 mm 2 mps 756 mmHg 64%
05:00 +21°C° 0 mm 2 mps 757 mmHg 60%
06:00 +24°C° 0 mm 2 mps 757 mmHg 56%
07:00 +25°C° 0 mm 2 mps 757 mmHg 51%
08:00 +26°C° 0 mm 3 mps 757 mmHg 49%
09:00 +27°C° 0 mm 3 mps 757 mmHg 47%
10:00 +28°C° 0 mm 3 mps 758 mmHg 44%
11:00 +29°C° 0 mm 4 mps 757 mmHg 43%
12:00 +29°C° 0 mm 4 mps 757 mmHg 42%
13:00 +29°C° 0 mm 4 mps 757 mmHg 40%
14:00 +29°C° 0 mm 5 mps 757 mmHg 41%
15:00 +29°C° 0 mm 5 mps 757 mmHg 41%
16:00 +28°C° 0 mm 5 mps 757 mmHg 42%
17:00 +26°C° 0 mm 5 mps 757 mmHg 52%
18:00 +23°C° 0 mm 5 mps 757 mmHg 63%
19:00 +20°C° 0 mm 5 mps 757 mmHg 74%
20:00 +20°C° 0 mm 5 mps 757 mmHg 71%
21:00 +20°C° 0 mm 5 mps 757 mmHg 67%
22:00 +19°C° 0 mm 4 mps 758 mmHg 64%
23:00 +19°C° 0 mm 4 mps 758 mmHg 60%

Day after tomorrow, 19 May, Wednesday

Time Temperature Precipitation Wind Pressure Humidity
00:00 +19°C° 0 mm 4 mps 757 mmHg 56%
01:00 +19°C° 0 mm 4 mps 757 mmHg 52%
02:00 +19°C° 0 mm 4 mps 757 mmHg 50%
03:00 +18°C° 0 mm 4 mps 757 mmHg 48%
04:00 +18°C° 0 mm 3 mps 757 mmHg 47%
05:00 +20°C° 0 mm 3 mps 758 mmHg 41%
06:00 +24°C° 0 mm 3 mps 758 mmHg 36%
07:00 +26°C° 0 mm 2 mps 758 mmHg 31%
08:00 +27°C° 0 mm 3 mps 758 mmHg 30%
09:00 +28°C° 0 mm 3 mps 758 mmHg 29%
10:00 +29°C° 0 mm 4 mps 758 mmHg 29%
11:00 +29°C° 0 mm 4 mps 758 mmHg 29%
12:00 +29°C° 0 mm 4 mps 758 mmHg 30%
13:00 +29°C° 0 mm 4 mps 758 mmHg 30%
14:00 +29°C° 0 mm 4 mps 757 mmHg 31%
15:00 +28°C° 0 mm 5 mps 757 mmHg 31%
16:00 +28°C° 0 mm 6 mps 757 mmHg 32%
17:00 +25°C° 0 mm 5 mps 757 mmHg 39%
18:00 +22°C° 0 mm 5 mps 757 mmHg 46%
19:00 +20°C° 0 mm 4 mps 757 mmHg 53%
20:00 +20°C° 0 mm 4 mps 757 mmHg 54%
21:00 +19°C° 0 mm 4 mps 757 mmHg 55%
22:00 +19°C° 0 mm 4 mps 757 mmHg 56%
23:00 +19°C° 0 mm 4 mps 757 mmHg 60%

20 May, Thursday

Time Temperature Precipitation Wind Pressure Humidity
00:00 +18°C° 0 mm 4 mps 757 mmHg 64%
01:00 +17°C° 0 mm 5 mps 756 mmHg 68%
02:00 +18°C° 0 mm 4 mps 756 mmHg 68%
03:00 +18°C° 0 mm 4 mps 756 mmHg 67%
04:00 +18°C° 0 mm 4 mps 756 mmHg 66%
05:00 +20°C° 0 mm 4 mps 756 mmHg 60%
06:00 +21°C° 0 mm 4 mps 756 mmHg 53%
07:00 +23°C° 0 mm 5 mps 756 mmHg 47%
08:00 +25°C° 0 mm 5 mps 756 mmHg 44%
09:00 +27°C° 0 mm 5 mps 756 mmHg 40%
10:00 +28°C° 0 mm 5 mps 756 mmHg 37%
11:00 +28°C° 0 mm 5 mps 756 mmHg 37%
12:00 +28°C° 0 mm 6 mps 756 mmHg 37%
13:00 +28°C° 0 mm 6 mps 756 mmHg 37%
14:00 +27°C° 0 mm 6 mps 756 mmHg 39%
15:00 +27°C° 0 mm 6 mps 756 mmHg 42%
16:00 +26°C° 0 mm 6 mps 755 mmHg 44%
17:00 +23°C° 0 mm 5 mps 756 mmHg 54%
18:00 +21°C° 0 mm 5 mps 756 mmHg 64%
19:00 +19°C° 0 mm 5 mps 756 mmHg 73%
20:00 +17°C° 0 mm 5 mps 756 mmHg 76%
21:00 +17°C° 0 mm 5 mps 756 mmHg 79%
22:00 +17°C° 0 mm 4 mps 756 mmHg 83%
23:00 +17°C° 0 mm 4 mps 756 mmHg 82%

21 May, Friday

Time Temperature Precipitation Wind Pressure Humidity
00:00 +15°C° 0 mm 4 mps 755 mmHg 81%
01:00 +15°C° 0 mm 4 mps 755 mmHg 80%
02:00 +15°C° 0 mm 4 mps 755 mmHg 80%
03:00 +15°C° 0 mm 5 mps 755 mmHg 80%
04:00 +14°C° 0 mm 5 mps 754 mmHg 81%
05:00 +16°C° 0 mm 5 mps 754 mmHg 73%
06:00 +17°C° 0 mm 5 mps 755 mmHg 65%
07:00 +20°C° 0 mm 5 mps 755 mmHg 57%
08:00 +20°C° 0.3 mm 5 mps 755 mmHg 59%
09:00 +19°C° 0.3 mm 6 mps 755 mmHg 61%
10:00 +19°C° 0.3 mm 6 mps 755 mmHg 63%
11:00 +20°C° 0.3 mm 6 mps 755 mmHg 61%
12:00 +20°C° 0.3 mm 7 mps 755 mmHg 59%
13:00 +20°C° 0.3 mm 7 mps 755 mmHg 57%
14:00 +20°C° 0.3 mm 7 mps 755 mmHg 58%
15:00 +20°C° 0.3 mm 7 mps 755 mmHg 60%
16:00 +20°C° 0.3 mm 8 mps 755 mmHg 62%
17:00 +18°C° 0.1 mm 7 mps 755 mmHg 66%
18:00 +17°C° 0.1 mm 6 mps 755 mmHg 69%
19:00 +16°C° 0.1 mm 6 mps 756 mmHg 73%
20:00 +15°C° 0 mm 5 mps 756 mmHg 74%
21:00 +15°C° 0 mm 4 mps 757 mmHg 75%
22:00 +14°C° 0 mm 3 mps 757 mmHg 76%
23:00 +14°C° 0 mm 3 mps 757 mmHg 77%

22 May, Saturday

Time Temperature Precipitation Wind Pressure Humidity
00:00 +15°C° 0 mm 2 mps 757 mmHg 77%
01:00 +14°C° 0 mm 2 mps 758 mmHg 78%
02:00 +14°C° 0 mm 2 mps 758 mmHg 79%
03:00 +14°C° 0 mm 2 mps 758 mmHg 79%
04:00 +14°C° 0 mm 2 mps 757 mmHg 80%
05:00 +16°C° 0 mm 2 mps 758 mmHg 71%
06:00 +17°C° 0 mm 2 mps 758 mmHg 62%
07:00 +19°C° 0 mm 2 mps 758 mmHg 54%
08:00 +20°C° 0 mm 3 mps 759 mmHg 49%
09:00 +21°C° 0 mm 3 mps 759 mmHg 45%
10:00 +23°C° 0 mm 4 mps 759 mmHg 41%
11:00 +23°C° 0 mm 4 mps 759 mmHg 41%
12:00 +23°C° 0 mm 5 mps 759 mmHg 42%
13:00 +23°C° 0 mm 5 mps 759 mmHg 42%
14:00 +23°C° 0 mm 6 mps 759 mmHg 44%
15:00 +23°C° 0 mm 7 mps 759 mmHg 46%
16:00 +23°C° 0 mm 8 mps 759 mmHg 48%
17:00 +21°C° 0 mm 7 mps 759 mmHg 57%
18:00 +20°C° 0 mm 7 mps 759 mmHg 66%
19:00 +17°C° 0 mm 6 mps 759 mmHg 74%
20:00 +16°C° 0 mm 6 mps 759 mmHg 76%
21:00 +16°C° 0 mm 6 mps 760 mmHg 77%
22:00 +15°C° 0 mm 5 mps 760 mmHg 78%
23:00 +15°C° 0 mm 5 mps 760 mmHg 78%
Show more